Wetbulb
66.24 66.14 65.85 65.29 64.96 65.36 65.84 65.69 64.60 64.81 65.57 66.00 65.40 65.28 65.09 65.05 64.88 65.03 65.17 65.20 65.16 65.22 65.34 65.40 65.48 65.85 66.26 66.52 65.99 65.49 64.96 64.12 63.79 62.77 62.06 62.22 62.85 62.70 62.31 62.05 61.71 61.60 61.62 61.42 61.63 61.63 61.36 61.18 60.96 60.71 60.46 60.33 60.56 60.65 60.97 61.17 61.08 60.81 60.43 59.94 59.47 59.24 59.12 58.82 58.44 58.37 58.39 58.57 58.40
66.03 65.84 65.09 63.23 63.17 64.45 65.65 65.51 65.04 65.02 65.39 66.08 65.80 65.55 65.46 65.05 64.87 65.02 65.09 65.07 65.13 65.38 65.60 65.73 65.56 66.01 66.44 66.57 66.25 65.86 65.30 64.36 63.74 62.86 62.60 62.58 62.79 62.71 62.40 62.11 61.76 61.44 61.32 61.43 61.62 61.35 61.10 61.23 60.96 60.51 60.29 60.58 60.58 60.58 60.77 61.09 61.04 60.82 60.36 59.83 59.49 59.44 59.39 59.17 58.93 58.80 58.79 58.74 58.61
66.12 65.92 65.62 65.22 65.43 65.64 65.72 65.65 65.73 65.83 65.98 66.11 66.08 65.89 65.40 65.02 64.92 64.83 64.93 65.28 65.46 65.59 65.60 65.67 65.67 66.07 66.38 66.55 66.39 66.10 65.67 65.19 63.92 63.19 62.94 62.90 62.90 62.78 62.46 62.26 61.93 61.31 60.89 61.34 61.63 61.43 61.41 61.50 60.76 60.14 59.87 60.38 60.31 60.27 60.36 60.70 60.77 60.64 60.32 59.95 59.71 59.48 59.35 59.14 59.20 58.95 58.59 58.30 58.33
66.14 66.00 65.77 65.76 65.74 65.65 65.72 65.65 65.89 65.97 66.05 65.94 66.02 65.84 65.47 65.07 64.92 64.97 65.05 65.34 65.39 65.34 65.50 65.76 65.77 66.04 66.08 65.91 66.06 66.08 65.78 64.60 63.95 63.36 62.90 62.69 62.78 62.70 62.58 62.32 62.08 61.66 61.44 61.45 61.44 61.47 61.60 61.70 61.03 60.36 59.98 60.14 60.10 60.02 60.04 60.22 60.27 60.37 60.42 60.37 59.96 59.64 59.32 59.12 59.06 58.66 58.19 57.97 58.25
66.07 65.85 65.76 65.82 65.72 65.78 65.86 66.03 65.95 65.87 65.94 66.03 65.87 65.74 65.34 65.18 65.02 64.96 64.99 64.78 64.89 65.33 65.74 65.99 66.14 66.09 66.00 65.87 66.04 66.15 65.85 64.97 62.97 62.82 63.29 62.59 62.72 62.83 62.87 62.63 62.33 61.94 61.70 61.46 61.62 61.61 61.58 61.49 61.02 60.70 60.36 60.20 59.99 59.91 59.99 60.24 60.13 60.19 60.28 60.55 59.97 59.61 59.19 58.90 58.71 58.53 58.25 57.98 58.08
65.77 65.76 65.75 65.63 65.85 66.06 66.06 66.23 66.23 66.14 65.90 65.78 65.61 65.42 65.18 64.95 64.91 64.87 64.88 64.87 65.14 65.57 65.68 65.00 64.99 65.09 65.23 66.05 66.33 66.15 65.89 65.48 64.39 63.83 63.47 62.83 62.79 62.85 62.89 62.60 62.42 62.16 61.81 61.65 61.78 61.86 61.63 61.07 60.63 60.52 60.36 60.26 59.96 60.05 60.36 60.46 60.04 59.87 59.97 60.06 59.66 59.39 59.07 58.56 58.60 58.51 58.24 57.88 57.97
66.00 65.92 65.83 65.89 66.08 66.20 66.26 66.50 66.49 66.34 66.04 65.69 65.55 65.24 65.01 64.89 64.94 65.05 65.19 65.23 65.37 65.35 65.00 63.90 64.60 65.09 65.47 65.97 66.36 66.27 65.94 65.33 65.02 64.56 63.86 63.18 63.08 62.88 62.68 62.66 62.32 62.24 62.05 62.02 61.86 61.63 61.42 60.87 60.59 60.04 59.41 59.05 59.71 60.06 60.11 60.31 59.93 59.69 59.47 59.38 59.52 59.34 59.07 58.56 58.51 58.48 58.26 57.97 57.86
66.23 65.92 65.84 66.20 66.30 66.42 66.41 66.46 66.19 65.99 65.66 65.24 65.04 64.94 64.94 64.99 64.88 65.09 65.41 65.38 65.38 65.43 65.44 65.23 65.80 66.06 65.95 65.70 66.06 66.16 66.05 65.67 65.11 64.88 64.60 63.68 63.47 63.24 62.87 62.65 62.30 62.10 62.12 62.23 61.81 61.53 61.32 60.96 60.64 60.29 59.98 59.80 59.82 59.92 60.01 59.96 59.99 59.61 59.12 58.99 59.19 59.29 59.06 58.70 58.61 58.42 58.21 57.94 57.80
66.07 65.99 65.97 66.18 66.41 66.45 66.36 66.11 65.95 65.63 65.33 64.88 64.75 64.75 64.87 65.03 65.05 65.17 65.25 65.32 65.11 65.76 66.50 66.52 66.50 66.31 66.03 65.74 65.81 66.09 66.15 65.99 65.47 65.11 64.82 64.31 63.68 63.29 63.04 62.64 62.18 62.03 61.92 62.16 61.97 61.74 61.44 60.99 60.57 60.51 60.33 60.03 59.82 59.59 59.55 59.72 59.58 59.40 58.96 58.65 58.76 58.97 59.02 58.87 58.53 58.42 58.38 57.97 57.61
65.92 65.91 65.95 65.98 66.35 66.25 65.93 65.80 65.58 65.46 65.11 64.71 64.71 64.63 64.17 62.69 63.90 64.80 65.35 65.19 65.07 65.77 66.66 66.99 67.07 66.95 66.64 65.99 65.77 65.75 65.89 66.20 65.66 65.45 65.08 64.53 64.05 63.66 63.18 62.59 62.25 61.92 61.76 62.18 62.06 61.78 61.38 60.82 60.55 60.35 60.18 59.94 59.73 59.45 59.45 59.64 59.32 58.94 58.60 58.29 58.30 58.40 58.60 58.56 58.47 58.43 58.24 57.85 57.66
65.85 65.83 65.79 65.57 66.00 65.66 65.23 65.33 64.88 64.75 64.72 64.56 64.59 64.53 64.09 62.93 64.05 64.72 65.12 65.12 65.56 65.99 66.47 67.06 67.17 67.35 67.32 67.01 67.07 66.86 66.66 66.47 65.83 65.59 65.34 65.05 64.33 63.96 63.51 62.71 62.38 61.98 61.89 62.08 62.06 61.61 61.14 60.60 60.33 60.23 60.05 59.80 59.53 59.47 59.37 59.41 59.12 58.90 58.60 58.20 58.06 58.11 58.21 58.19 58.24 58.24 58.15 57.89 57.87
65.68 65.60 65.43 65.37 65.48 65.21 64.86 64.69 64.31 64.21 64.21 64.29 64.39 64.47 64.64 64.85 65.07 64.88 64.74 65.15 65.44 65.78 66.11 66.70 67.10 67.35 67.50 67.53 67.74 67.30 66.65 66.50 66.33 66.00 65.71 65.41 65.11 64.72 64.12 63.11 62.73 62.33 62.13 62.10 61.88 61.39 61.01 60.56 60.33 60.21 60.04 59.75 59.47 59.30 59.29 59.25 58.83 58.65 58.47 58.21 57.98 57.85 57.81 57.90 58.03 58.07 58.12 58.21 58.03
65.06 65.03 64.99 64.93 64.92 64.80 64.45 64.15 64.05 63.98 64.00 64.04 64.31 64.31 64.53 64.80 64.88 64.74 64.70 64.99 65.09 65.36 65.77 66.11 66.58 66.95 67.27 67.68 67.71 67.53 66.94 65.78 65.66 65.44 65.45 65.49 65.54 65.22 64.63 63.72 63.06 62.52 62.20 61.99 61.72 61.39 61.05 60.67 60.39 60.20 60.00 59.88 59.60 59.49 59.34 59.16 58.69 58.34 58.16 58.11 57.76 57.62 57.58 57.77 57.88 57.96 58.01 58.08 57.90
64.83 64.63 64.49 64.55 64.51 64.33 63.96 63.68 63.53 63.65 63.70 63.93 64.21 64.47 64.63 64.86 64.53 64.43 64.62 65.03 65.03 65.24 65.55 65.68 65.77 66.08 66.61 67.53 67.53 67.55 67.16 66.18 65.46 65.13 65.01 65.06 65.34 65.15 64.76 64.03 63.38 62.76 62.34 62.09 61.82 61.47 61.20 60.84 60.68 60.54 60.40 60.02 59.85 59.67 59.40 59.11 58.62 58.23 58.01 57.74 57.48 57.44 57.58 57.72 57.75 57.75 57.72 57.62 57.36
64.65 64.56 64.36 64.30 64.06 63.82 63.54 63.46 63.26 63.40 63.59 63.70 64.25 64.49 64.75 64.88 64.33 64.27 64.50 65.13 65.15 65.21 65.44 65.44 65.29 65.42 66.08 67.16 67.30 67.49 67.43 67.13 66.06 65.41 64.94 64.94 65.12 65.01 64.72 64.49 63.83 63.13 62.56 62.20 61.93 61.73 61.43 61.29 61.15 60.92 60.65 60.33 60.06 59.76 59.45 59.02 58.66 58.30 58.03 57.86 57.64 57.56 57.52 57.71 57.81 57.65 57.48 57.26 57.16
64.54 64.40 64.18 64.03 63.58 63.43 63.33 63.23 63.33 63.33 63.63 63.77 64.33 64.53 64.69 64.90 64.75 64.60 64.52 65.11 65.13 65.12 65.11 65.05 65.07 65.38 65.86 65.91 66.60 67.04 67.22 67.30 66.66 65.91 65.32 65.10 65.02 64.92 64.83 64.74 64.17 63.62 63.10 62.47 62.11 61.82 61.67 61.63 61.63 61.26 60.76 60.31 60.10 59.71 59.31 58.84 58.57 58.30 58.12 58.07 57.89 57.77 57.65 57.53 57.60 57.52 57.34 57.16 56.84
64.35 64.13 63.94 63.68 63.34 63.13 63.17 63.17 63.44 63.55 63.76 64.10 64.35 64.56 64.63 64.91 65.02 64.47 64.13 64.56 64.90 64.88 64.74 64.91 64.87 65.24 65.39 65.04 65.68 66.28 66.80 67.02 66.60 66.03 65.35 64.94 64.95 64.98 64.93 64.80 64.54 64.23 63.71 62.86 62.33 61.91 61.68 61.52 61.51 61.22 60.94 60.49 60.10 59.62 59.13 58.79 58.55 58.24 58.01 58.05 58.00 57.86 57.69 57.19 57.47 57.61 57.52 57.16 56.75
63.98 63.92 63.73 63.24 63.10 63.03 63.12 63.22 63.42 63.69 63.93 64.19 64.35 64.56 64.66 64.91 64.89 64.56 64.27 64.33 64.73 64.63 64.56 64.80 64.97 65.07 65.18 65.52 65.63 65.47 65.59 66.22 66.04 65.71 65.24 64.90 64.88 64.95 65.05 65.04 64.84 64.67 64.23 63.26 62.63 62.09 61.64 61.36 61.08 61.08 60.75 60.38 59.85 59.40 59.09 58.75 58.56 58.25 58.07 58.02 57.92 57.91 57.73 57.48 57.72 57.83 57.74 57.42 56.98
63.76 63.59 63.36 62.94 63.03 63.07 63.02 62.99 63.36 63.76 64.08 64.35 64.40 64.55 64.65 64.78 64.69 64.69 64.76 64.74 64.38 64.43 64.63 64.55 64.41 64.56 64.91 65.51 65.70 64.88 64.36 65.32 65.64 65.70 65.61 65.36 65.15 64.92 64.77 64.79 64.55 64.39 64.06 63.17 62.54 62.09 61.68 61.27 61.00 60.64 60.25 59.80 59.52 59.25 58.99 58.74 58.44 58.37 58.19 58.04 57.84 57.74 57.78 57.88 57.94 57.99 58.08 57.98 57.45
63.58 63.27 62.95 63.10 63.16 63.14 63.11 63.11 63.59 63.94 64.11 64.33 64.56 64.63 64.64 64.56 64.61 64.54 64.54 64.62 64.26 64.41 64.62 64.44 63.88 64.06 64.68 65.36 65.42 65.02 64.59 64.71 65.49 65.89 65.95 65.82 65.54 65.11 64.54 64.18 63.51 63.22 62.99 62.44 62.08 61.70 61.50 61.14 60.79 60.34 59.94 59.33 59.15 59.11 58.89 58.67 58.42 58.24 58.15 58.02 57.81 57.66 57.70 57.75 57.90 57.99 58.12 58.24 58.11
63.22 63.05 63.14 63.37 63.44 63.40 63.40 63.57 63.84 64.01 64.06 64.21 64.47 64.46 64.38 64.28 64.48 64.40 64.22 64.16 64.21 64.36 64.25 63.80 63.80 63.92 64.34 64.78 64.92 65.04 64.81 64.30 65.19 65.64 65.66 65.43 65.14 64.80 64.40 63.74 62.99 62.60 62.22 61.70 61.58 61.44 61.25 61.09 60.61 60.30 59.96 59.53 59.26 59.08 58.90 58.56 58.29 58.11 58.11 57.98 57.88 57.81 57.76 57.90 57.90 57.95 58.04 58.26 58.25
63.04 63.23 63.41 63.78 63.66 63.51 63.51 63.68 63.90 63.90 64.00 64.12 64.40 64.43 64.33 64.19 64.16 64.10 64.10 64.40 64.34 64.22 64.01 63.87 64.17 64.12 64.20 64.36 64.36 64.44 64.23 63.56 64.45 64.60 64.53 64.36 64.29 64.15 63.84 63.56 63.13 62.52 62.03 61.72 61.56 61.29 61.04 60.84 60.62 60.37 60.06 59.64 59.41 59.21 58.94 58.51 58.24 58.15 58.11 58.02 57.97 57.97 57.97 58.06 58.01 58.01 58.01 58.22 58.35
63.28 63.53 63.82 64.02 63.76 63.11 62.77 63.24 63.72 63.80 63.92 64.02 64.31 64.29 64.14 63.85 63.79 63.85 64.19 64.61 63.91 63.76 63.93 64.25 64.15 64.19 64.19 64.23 64.06 63.83 63.58 63.02 63.31 63.27 63.16 63.34 63.63 63.68 63.84 63.83 63.22 62.51 62.08 62.04 61.86 61.68 61.41 60.93 60.62 60.40 60.10 59.75 59.52 59.20 58.93 58.66 58.31 58.24 58.06 58.06 57.97 58.02 57.98 58.02 58.06 58.06 58.15 58.22 58.40
63.57 63.74 63.92 64.08 63.76 63.36 63.19 63.40 63.55 63.64 63.78 63.90 64.17 64.06 63.78 63.44 63.52 63.72 63.91 64.22 64.03 63.99 64.06 64.10 63.92 64.17 64.35 64.41 63.95 63.58 63.24 62.60 62.32 62.11 62.22 62.76 63.23 63.54 63.65 63.44 62.92 62.56 62.29 62.13 61.01 60.20 60.06 60.32 60.70 60.34 59.99 59.74 59.56 59.49 59.30 58.90 58.56 58.26 58.13 58.06 58.02 57.98 57.94 58.12 58.11 58.15 58.15 58.19 58.42
63.82 63.66 63.74 63.80 63.55 63.40 63.36 63.36 63.36 63.41 63.62 63.71 63.92 63.78 63.70 63.48 63.68 63.69 63.77 63.76 63.94 64.11 64.17 63.90 64.11 64.29 64.29 63.94 63.58 63.34 62.99 62.43 61.78 61.46 61.53 62.36 62.92 63.29 63.38 63.02 62.77 62.59 61.98 60.56 53.64 51.10 51.83 54.76 57.52 59.24 59.96 59.83 59.69 59.64 59.40 58.96 58.60 58.43 58.26 58.06 57.89 57.90 57.81 57.90 58.08 58.11 58.15 58.28 58.51
63.68 63.62 63.53 63.51 63.32 63.24 63.15 63.23 63.36 63.45 63.59 63.69 63.73 63.61 63.58 63.60 63.68 63.74 63.76 63.67 63.74 63.77 63.86 63.51 63.80 63.10 62.52 63.22 62.99 62.88 62.71 62.15 61.90 61.92 62.03 62.40 62.63 62.94 63.01 62.86 62.56 62.61 60.97 55.72 48.57 46.17 46.71 48.44 50.34 53.31 56.89 60.40 59.88 59.53 59.14 58.73 58.62 58.53 58.40 58.28 58.07 57.99 57.81 57.73 57.82 57.99 58.11 58.33 58.60
63.28 63.30 63.22 63.27 63.03 62.95 63.02 63.09 63.16 63.31 63.45 63.50 63.71 63.63 63.44 63.67 63.51 63.62 63.56 63.35 63.47 63.47 63.35 63.22 63.29 61.64 60.52 62.54 62.60 62.74 62.73 62.56 62.61 62.75 62.73 62.65 62.51 62.63 62.74 62.81 62.63 62.43 59.26 50.25 45.49 44.36 45.08 46.08 46.44 48.44 52.77 59.82 59.77 59.37 58.93 58.61 58.60 58.60 58.51 58.42 58.29 58.07 57.94 57.67 57.72 57.72 57.81 58.26 58.65
62.96 63.02 63.04 62.88 62.71 62.76 62.92 62.98 63.03 62.98 63.02 63.23 63.44 63.56 63.48 63.38 63.44 63.29 63.13 63.00 62.92 62.71 62.68 62.91 62.66 62.09 61.89 62.71 62.84 63.14 63.25 63.18 63.08 62.84 62.77 62.93 62.77 62.65 62.72 62.67 62.52 59.61 53.95 45.17 43.72 43.81 44.72 45.54 45.54 46.35 48.89 54.13 58.65 59.68 59.15 58.79 58.62 58.62 58.62 58.44 58.39 58.25 58.16 57.98 57.89 57.94 57.94 58.21 58.57
62.76 62.85 62.77 62.49 62.53 62.70 62.85 62.93 62.74 62.76 62.89 63.17 63.21 63.27 63.36 63.23 63.11 62.97 62.58 62.29 62.04 62.00 62.29 62.72 62.51 62.56 62.92 63.22 63.40 63.46 63.47 63.19 62.89 62.77 62.63 62.67 62.20 62.07 62.25 62.22 61.81 56.28 48.57 41.14 42.77 43.81 44.45 45.08 44.90 44.99 46.08 49.12 56.30 59.17 59.47 59.16 58.94 58.85 58.76 58.71 58.57 58.34 58.11 58.02 57.97 58.06 58.06 58.24 58.34
62.74 62.67 62.47 62.38 62.46 62.53 62.71 62.86 62.88 62.89 62.89 62.63 62.85 62.91 63.02 62.88 62.67 62.32 61.90 61.57 61.55 61.84 62.23 62.65 62.83 63.04 63.28 63.74 63.57 63.30 62.98 62.64 62.61 62.31 61.97 61.72 61.79 61.69 61.60 61.25 61.67 56.80 48.84 39.88 42.41 43.63 43.90 44.18 43.81 43.72 44.27 45.99 52.96 57.51 59.79 59.61 59.17 58.77 58.51 58.75 58.66 58.97 59.05 58.71 58.21 57.63 57.18 57.37 58.22
62.52 62.43 62.44 62.32 62.43 62.53 62.72 62.92 62.84 62.71 62.59 62.45 62.60 62.69 62.53 62.33 61.91 61.51 61.40 61.22 61.54 61.45 61.65 62.45 62.77 62.89 63.04 63.40 63.20 62.92 62.57 62.35 62.03 61.68 61.50 61.58 60.69 60.88 61.43 61.70 60.38 54.53 46.40 38.61 41.41 42.45 42.82 42.91 42.54 42.18 42.18 42.73 48.93 54.36 56.84 54.63 52.01 50.11 48.75 47.89 47.03 46.58 46.45 46.31 46.54 47.76 49.47 51.46 53.54
62.19 62.29 62.19 62.40 62.57 62.69 62.67 62.70 62.54 62.54 62.55 62.63 62.54 62.29 62.05 61.71 61.48 61.39 61.47 61.44 61.62 61.63 61.84 62.38 62.54 62.44 62.32 62.62 62.53 62.54 62.29 61.92 61.76 61.53 61.39 61.37 60.94 60.00 58.07 55.19 51.49 45.95 40.69 38.11 40.42 41.59 42.14 42.14 41.78 41.78 42.05 42.73 44.68 45.77 45.46 43.39 42.48 41.94 41.67 41.67 42.07 42.88 43.92 45.14 45.86 46.63 47.39 48.25 49.29
62.04 62.09 62.25 62.54 62.59 62.63 62.59 62.34 62.41 62.60 62.59 62.43 62.25 61.89 61.62 61.45 61.39 61.37 61.53 61.48 61.85 62.06 62.40 62.34 62.06 61.72 61.52 61.71 61.98 61.91 61.67 61.47 61.26 60.43 59.32 58.34 55.92 51.55 46.85 43.02 42.25 40.34 38.65 38.65 40.33 41.10 41.28 41.15 41.15 41.15 41.46 41.87 44.04 45.41 45.59 44.51 43.42 42.47 41.66 40.99 40.72 40.86 41.22 41.85 42.88 44.15 45.36 46.63 47.57
61.63 61.82 62.04 62.36 62.52 62.47 62.45 62.33 62.50 62.40 62.19 61.79 61.46 61.39 61.30 61.17 61.11 61.19 61.17 61.22 61.38 61.10 60.61 59.93 59.85 59.51 59.39 59.54 59.58 59.15 58.67 58.07 58.36 56.66 53.40 48.79 46.27 44.70 43.93 43.33 42.46 40.42 38.61 38.93 39.83 40.33 40.61 40.70 40.70 40.75 40.75 40.84 42.79 43.38 42.85 41.77 40.81 39.95 39.14 38.60 38.43 38.44 38.63 39.08 39.98 41.14 42.31 43.26 43.79
61.34 61.26 61.51 62.20 62.40 62.39 62.22 62.05 62.16 62.02 61.63 60.89 60.87 60.88 60.93 60.91 60.97 60.89 60.18 58.59 56.34 54.25 52.44 50.99 50.67 50.36 50.14 50.32 50.27 49.73 49.10 48.52 47.98 47.26 46.72 46.22 45.46 44.43 43.20 42.16 41.06 39.26 38.08 38.70 39.25 39.66 39.94 40.08 40.13 40.27 40.50 40.76 41.85 41.85 41.01 39.80 38.75 37.98 37.22 36.68 36.15 36.05 36.16 36.55 37.16 38.23 39.43 40.42 40.60
61.33 61.07 61.29 61.74 61.98 61.83 61.55 61.37 61.30 61.12 60.80 60.56 60.87 60.85 60.94 60.94 60.41 58.58 55.43 51.42 50.10 49.38 48.79 48.25 48.11 47.89 47.75 47.62 47.39 46.94 46.58 46.90 46.67 46.31 45.91 45.28 44.30 43.26 42.35 41.57 40.48 38.85 37.68 38.04 38.49 39.03 39.36 39.54 39.63 39.95 40.50 41.45 41.58 40.95 39.79 38.66 37.48 36.59 35.88 35.11 34.52 34.25 34.25 34.34 34.78 35.45 36.53 37.71 38.26
61.36 61.45 61.47 61.38 61.30 61.08 60.76 60.45 60.22 60.08 59.95 60.04 60.69 60.94 60.54 59.66 56.83 54.11 51.68 49.83 49.15 48.07 46.85 45.86 45.19 44.79 44.52 44.29 44.06 44.02 44.11 44.52 44.16 43.62 43.17 42.90 42.58 42.22 41.54 40.81 40.04 38.58 37.45 37.37 38.00 38.45 38.90 39.31 39.50 40.01 40.78 41.72 41.18 40.14 38.97 37.93 36.80 35.82 34.93 34.17 33.58 33.31 33.18 32.95 32.86 33.22 33.76 34.75 35.57
61.59 61.61 61.43 61.22 60.88 60.40 60.13 59.92 59.69 59.56 59.63 60.21 60.78 60.05 58.07 55.17 52.75 51.13 49.87 48.25 47.62 46.09 44.43 43.21 42.22 41.63 41.32 41.28 40.88 40.75 40.88 41.34 41.34 41.24 41.06 40.83 40.79 40.57 40.12 39.61 38.96 38.13 37.32 37.02 37.56 38.10 38.55 38.96 39.24 39.75 40.43 41.32 40.60 39.52 38.34 37.21 36.04 34.92 34.07 33.31 32.86 32.70 32.48 32.28 31.92 31.76 31.78 32.10 32.80
61.42 61.38 61.33 61.22 60.81 60.31 59.99 59.82 59.80 59.90 60.05 59.99 58.66 56.35 53.76 51.67 50.50 49.28 48.02 46.63 45.83 44.41 42.79 41.33 40.32 39.60 39.21 38.88 38.45 38.04 37.81 38.09 38.31 38.43 38.50 38.62 38.32 38.16 37.94 37.78 37.52 37.19 36.83 36.58 37.21 37.71 38.21 38.53 38.67 39.04 39.50 40.12 39.89 39.07 37.81 36.50 35.29 34.21 33.40 32.77 32.23 31.85 31.69 31.67 31.40 30.83 30.56 30.72 31.38
61.27 61.46 61.52 61.56 61.37 60.88 60.63 60.63 60.85 60.34 59.01 56.24 53.47 51.52 50.18 49.06 47.71 46.59 45.56 44.45 43.53 42.32 40.98 39.52 38.68 38.13 37.52 36.66 36.33 35.83 35.37 35.42 35.76 35.88 35.96 35.86 35.83 35.80 35.76 36.00 36.04 35.94 35.90 35.92 36.46 37.18 37.72 38.13 38.32 38.60 38.92 39.53 39.31 38.54 37.28 35.98 34.64 33.60 32.82 32.28 31.67 31.02 30.70 30.67 30.56 30.21 29.80 29.71 30.16
61.47 61.31 61.16 61.42 61.78 61.78 61.40 60.50 59.01 56.97 54.51 51.68 50.21 48.96 47.80 46.76 45.73 44.80 43.70 42.58 41.43 40.44 39.32 38.27 37.49 36.96 36.21 35.27 34.58 33.87 33.45 33.20 33.60 33.85 33.94 33.72 33.81 33.99 34.24 34.48 34.49 34.47 34.65 35.03 35.59 36.30 36.97 37.60 37.97 38.16 38.43 38.68 38.59 37.87 36.79 35.47 33.89 32.77 32.05 31.63 31.01 30.33 29.68 29.51 29.46 29.30 29.13 28.98 29.02
MSLP
996.06 996.30 996.42 996.70 996.82 996.94 997.06 997.18 997.30 997.50 997.74 998.18 998.50 998.82 999.06 999.30 999.46 999.58 999.74 999.94 1000.06 1000.18 1000.38 1000.58 1000.82 1000.94 1001.02 1001.30 1001.74 1002.14 1002.50 1002.94 1003.30 1003.62 1003.86 1004.06 1004.26 1004.50 1004.74 1005.02 1005.26 1005.50 1005.74 1005.94 1006.26 1006.42 1006.62 1006.82 1007.02 1007.14 1007.30 1007.50 1007.74 1007.94 1008.06 1008.26 1008.42 1008.62 1008.86 1009.06 1009.26 1009.38 1009.50 1009.58 1009.70 1009.86 1010.06 1010.26 1010.30
995.86 996.14 996.38 996.62 996.82 997.02 997.06 997.18 997.30 997.46 997.62 997.94 998.26 998.58 998.82 999.14 999.18 999.38 999.58 999.74 999.86 1000.02 1000.14 1000.38 1000.58 1000.74 1000.86 1001.06 1001.46 1001.82 1002.26 1002.62 1003.06 1003.46 1003.70 1003.86 1004.14 1004.26 1004.50 1004.82 1005.06 1005.38 1005.58 1005.82 1006.06 1006.30 1006.50 1006.70 1006.82 1007.02 1007.26 1007.46 1007.70 1007.82 1007.94 1008.14 1008.26 1008.42 1008.70 1008.86 1009.06 1009.26 1009.38 1009.50 1009.62 1009.74 1009.86 1010.14 1010.30
995.82 996.06 996.30 996.58 996.74 996.94 997.06 997.14 997.26 997.38 997.58 997.74 998.06 998.30 998.62 998.86 999.02 999.18 999.30 999.50 999.70 999.82 999.94 1000.14 1000.30 1000.50 1000.74 1000.94 1001.18 1001.50 1001.94 1002.38 1002.86 1003.26 1003.58 1003.74 1003.86 1004.06 1004.30 1004.58 1004.82 1005.14 1005.38 1005.58 1005.86 1006.14 1006.26 1006.42 1006.62 1006.86 1007.14 1007.30 1007.50 1007.62 1007.82 1007.94 1008.14 1008.30 1008.50 1008.62 1008.82 1009.02 1009.18 1009.30 1009.46 1009.70 1009.86 1010.06 1010.26
995.62 995.94 996.26 996.42 996.62 996.82 996.94 997.02 997.14 997.30 997.46 997.62 997.86 998.14 998.38 998.58 998.82 999.02 999.14 999.30 999.58 999.70 999.74 999.82 1000.02 1000.26 1000.58 1000.74 1001.02 1001.30 1001.62 1002.02 1002.58 1003.02 1003.30 1003.58 1003.70 1003.86 1004.06 1004.30 1004.70 1004.86 1005.14 1005.38 1005.62 1005.86 1006.06 1006.30 1006.58 1006.74 1006.94 1007.14 1007.30 1007.50 1007.62 1007.86 1008.06 1008.18 1008.30 1008.42 1008.62 1008.82 1008.94 1009.14 1009.38 1009.58 1009.74 1009.86 1010.06
995.50 995.74 996.02 996.26 996.50 996.70 996.82 996.86 997.02 997.18 997.38 997.58 997.82 998.06 998.26 998.42 998.62 998.82 999.02 999.26 999.46 999.50 999.50 999.58 999.74 1000.02 1000.26 1000.50 1000.82 1001.06 1001.38 1001.70 1002.26 1002.74 1003.14 1003.38 1003.58 1003.74 1003.94 1004.14 1004.42 1004.70 1004.94 1005.18 1005.46 1005.70 1005.86 1006.14 1006.42 1006.62 1006.74 1007.02 1007.18 1007.38 1007.50 1007.74 1007.94 1008.14 1008.26 1008.30 1008.42 1008.62 1008.82 1009.02 1009.18 1009.38 1009.58 1009.70 1009.82
995.30 995.62 995.86 996.14 996.30 996.58 996.74 996.82 997.02 997.18 997.30 997.50 997.70 997.94 998.14 998.26 998.50 998.70 998.86 999.06 999.18 999.30 999.38 999.50 999.58 999.74 1000.02 1000.30 1000.62 1000.86 1001.18 1001.50 1001.94 1002.42 1002.82 1003.18 1003.46 1003.62 1003.82 1004.02 1004.26 1004.58 1004.82 1005.02 1005.26 1005.46 1005.70 1006.02 1006.26 1006.42 1006.62 1006.86 1006.94 1007.14 1007.38 1007.62 1007.82 1008.02 1008.14 1008.26 1008.38 1008.50 1008.62 1008.86 1009.02 1009.18 1009.38 1009.50 1009.62
995.14 995.50 995.74 995.94 996.18 996.50 996.70 996.74 996.94 997.14 997.30 997.46 997.62 997.86 998.06 998.14 998.30 998.50 998.70 998.82 999.02 999.18 999.30 999.46 999.50 999.62 999.82 1000.14 1000.38 1000.70 1000.94 1001.30 1001.74 1002.14 1002.58 1002.94 1003.26 1003.38 1003.58 1003.82 1004.06 1004.30 1004.62 1004.82 1005.06 1005.30 1005.58 1005.82 1006.06 1006.26 1006.42 1006.62 1006.82 1007.02 1007.18 1007.46 1007.70 1007.86 1008.02 1008.14 1008.18 1008.30 1008.50 1008.62 1008.74 1008.94 1009.14 1009.30 1009.46
994.94 995.26 995.50 995.82 996.06 996.38 996.58 996.74 996.94 997.18 997.38 997.46 997.62 997.82 997.94 998.06 998.26 998.38 998.58 998.74 998.94 999.06 999.18 999.30 999.38 999.50 999.70 999.94 1000.14 1000.42 1000.74 1001.14 1001.58 1001.94 1002.30 1002.70 1002.94 1003.18 1003.38 1003.62 1003.86 1004.14 1004.38 1004.70 1004.94 1005.14 1005.38 1005.62 1005.86 1006.02 1006.18 1006.50 1006.62 1006.74 1006.94 1007.18 1007.38 1007.62 1007.74 1007.86 1008.02 1008.14 1008.30 1008.50 1008.62 1008.74 1008.86 1009.06 1009.26
994.82 995.14 995.38 995.74 996.02 996.30 996.50 996.70 996.94 997.14 997.30 997.50 997.62 997.82 997.94 998.06 998.18 998.38 998.58 998.70 998.82 998.94 999.14 999.26 999.30 999.46 999.58 999.74 999.94 1000.26 1000.58 1000.94 1001.30 1001.74 1002.06 1002.30 1002.70 1002.94 1003.18 1003.46 1003.62 1003.94 1004.18 1004.50 1004.70 1004.94 1005.18 1005.46 1005.62 1005.82 1006.02 1006.18 1006.38 1006.50 1006.70 1006.94 1007.14 1007.30 1007.50 1007.70 1007.82 1008.02 1008.18 1008.30 1008.42 1008.58 1008.70 1008.86 1009.06
994.70 994.94 995.26 995.62 995.94 996.26 996.42 996.62 996.86 997.14 997.30 997.50 997.70 997.82 997.94 998.14 998.26 998.30 998.42 998.58 998.70 998.86 999.06 999.18 999.26 999.38 999.50 999.62 999.82 1000.06 1000.38 1000.70 1001.14 1001.50 1001.82 1002.06 1002.42 1002.70 1003.02 1003.30 1003.50 1003.70 1003.94 1004.18 1004.50 1004.74 1005.02 1005.26 1005.46 1005.58 1005.82 1005.94 1006.14 1006.30 1006.50 1006.70 1006.94 1007.06 1007.26 1007.50 1007.70 1007.86 1008.02 1008.18 1008.30 1008.42 1008.58 1008.74 1008.86
994.62 994.86 995.18 995.50 995.86 996.18 996.38 996.62 996.86 997.14 997.38 997.58 997.74 997.94 998.06 998.14 998.26 998.30 998.38 998.50 998.70 998.82 999.02 999.14 999.18 999.38 999.50 999.58 999.74 1000.02 1000.26 1000.50 1000.82 1001.18 1001.58 1001.86 1002.18 1002.50 1002.82 1003.06 1003.26 1003.50 1003.74 1004.06 1004.30 1004.62 1004.86 1005.06 1005.26 1005.38 1005.58 1005.74 1006.02 1006.18 1006.38 1006.58 1006.74 1006.94 1007.14 1007.30 1007.50 1007.70 1007.86 1008.02 1008.18 1008.30 1008.38 1008.50 1008.70
994.50 994.82 995.06 995.38 995.82 996.14 996.42 996.62 996.86 997.14 997.46 997.62 997.74 997.86 998.02 998.14 998.18 998.26 998.30 998.42 998.62 998.74 998.94 999.06 999.18 999.38 999.46 999.58 999.74 1000.02 1000.30 1000.50 1000.74 1001.06 1001.38 1001.70 1002.02 1002.30 1002.62 1002.86 1003.14 1003.38 1003.62 1003.94 1004.18 1004.42 1004.70 1004.86 1005.02 1005.18 1005.38 1005.58 1005.82 1006.02 1006.18 1006.38 1006.62 1006.74 1006.94 1007.18 1007.30 1007.50 1007.70 1007.82 1008.02 1008.14 1008.26 1008.38 1008.50
994.50 994.74 995.06 995.38 995.74 996.14 996.42 996.62 996.86 997.14 997.38 997.62 997.62 997.74 997.86 998.02 998.06 998.14 998.26 998.42 998.58 998.70 998.86 999.06 999.18 999.38 999.46 999.58 999.82 1000.06 1000.38 1000.62 1000.82 1001.06 1001.30 1001.50 1001.82 1002.14 1002.42 1002.74 1003.02 1003.26 1003.50 1003.74 1004.02 1004.26 1004.42 1004.62 1004.82 1005.02 1005.18 1005.38 1005.62 1005.82 1006.02 1006.18 1006.42 1006.62 1006.74 1007.02 1007.14 1007.30 1007.50 1007.62 1007.82 1008.02 1008.14 1008.26 1008.38
994.42 994.74 995.06 995.38 995.74 996.14 996.50 996.70 996.86 997.14 997.38 997.50 997.58 997.62 997.74 997.86 997.94 998.06 998.18 998.38 998.50 998.62 998.74 998.94 999.14 999.30 999.50 999.58 999.74 1000.06 1000.38 1000.70 1000.86 1001.06 1001.26 1001.46 1001.62 1001.86 1002.18 1002.58 1002.86 1003.14 1003.30 1003.58 1003.82 1004.06 1004.26 1004.38 1004.58 1004.74 1005.02 1005.18 1005.38 1005.62 1005.82 1006.02 1006.26 1006.42 1006.62 1006.74 1006.94 1007.06 1007.26 1007.46 1007.62 1007.82 1008.02 1008.14 1008.26
994.50 994.74 995.06 995.38 995.74 996.14 996.42 996.70 996.86 997.14 997.30 997.46 997.46 997.50 997.62 997.74 997.86 997.94 998.14 998.26 998.42 998.50 998.62 998.82 999.02 999.26 999.46 999.58 999.74 1000.02 1000.26 1000.50 1000.74 1001.02 1001.18 1001.38 1001.58 1001.74 1002.02 1002.38 1002.70 1002.94 1003.18 1003.46 1003.62 1003.82 1004.02 1004.26 1004.42 1004.58 1004.74 1005.02 1005.18 1005.38 1005.62 1005.82 1006.06 1006.26 1006.42 1006.62 1006.74 1006.86 1007.06 1007.26 1007.46 1007.62 1007.82 1008.02 1008.14
994.50 994.74 995.06 995.38 995.70 996.02 996.26 996.58 996.82 997.02 997.18 997.30 997.38 997.38 997.46 997.62 997.70 997.82 998.02 998.14 998.30 998.38 998.50 998.70 998.86 999.06 999.38 999.62 999.82 1000.02 1000.18 1000.30 1000.58 1000.86 1001.06 1001.26 1001.46 1001.62 1001.86 1002.18 1002.42 1002.70 1003.02 1003.26 1003.46 1003.62 1003.86 1004.06 1004.26 1004.42 1004.62 1004.82 1005.02 1005.26 1005.46 1005.70 1005.86 1006.06 1006.30 1006.42 1006.58 1006.74 1006.94 1007.06 1007.26 1007.46 1007.62 1007.82 1008.02
994.42 994.74 995.06 995.38 995.62 995.86 996.14 996.42 996.70 996.86 997.06 997.18 997.26 997.30 997.30 997.46 997.50 997.70 997.86 998.02 998.14 998.26 998.38 998.50 998.62 998.86 999.18 999.58 999.82 1000.02 1000.14 1000.26 1000.42 1000.70 1000.94 1001.14 1001.30 1001.58 1001.74 1002.02 1002.18 1002.42 1002.74 1003.06 1003.26 1003.50 1003.74 1003.94 1004.14 1004.30 1004.50 1004.70 1004.94 1005.18 1005.38 1005.58 1005.74 1005.94 1006.14 1006.30 1006.42 1006.62 1006.74 1006.94 1007.14 1007.26 1007.46 1007.62 1007.82
994.50 994.74 995.02 995.26 995.50 995.70 995.94 996.26 996.42 996.70 996.82 996.94 997.14 997.14 997.18 997.26 997.38 997.58 997.70 997.74 997.86 998.06 998.26 998.38 998.50 998.74 999.06 999.50 999.74 999.86 1000.06 1000.26 1000.42 1000.58 1000.74 1001.02 1001.18 1001.46 1001.62 1001.86 1002.06 1002.30 1002.58 1002.86 1003.14 1003.38 1003.62 1003.82 1004.06 1004.30 1004.50 1004.70 1004.86 1005.14 1005.26 1005.46 1005.70 1005.86 1006.02 1006.14 1006.30 1006.42 1006.58 1006.82 1007.02 1007.14 1007.26 1007.50 1007.70
994.42 994.70 994.86 995.14 995.38 995.58 995.70 995.94 996.26 996.42 996.62 996.74 996.94 997.02 997.06 997.14 997.18 997.38 997.50 997.58 997.70 997.86 998.14 998.30 998.58 998.74 999.06 999.30 999.58 999.74 1000.02 1000.18 1000.38 1000.50 1000.62 1000.86 1001.06 1001.26 1001.50 1001.74 1002.02 1002.26 1002.50 1002.74 1003.06 1003.26 1003.50 1003.74 1004.02 1004.26 1004.42 1004.62 1004.82 1005.02 1005.18 1005.38 1005.58 1005.74 1005.94 1006.14 1006.18 1006.30 1006.50 1006.70 1006.86 1007.02 1007.14 1007.26 1007.50
994.38 994.58 994.82 995.06 995.26 995.38 995.50 995.70 995.94 996.18 996.42 996.62 996.74 996.86 996.94 997.02 997.06 997.18 997.30 997.46 997.62 997.74 998.02 998.26 998.50 998.74 999.06 999.30 999.50 999.70 999.86 1000.06 1000.30 1000.50 1000.62 1000.82 1001.02 1001.18 1001.46 1001.70 1001.94 1002.18 1002.50 1002.82 1003.06 1003.30 1003.50 1003.70 1003.94 1004.18 1004.38 1004.62 1004.82 1004.94 1005.14 1005.30 1005.58 1005.70 1005.82 1006.02 1006.14 1006.26 1006.42 1006.62 1006.74 1006.86 1007.02 1007.14 1007.38
994.30 994.50 994.70 994.86 995.06 995.18 995.26 995.38 995.70 996.02 996.30 996.50 996.62 996.74 996.82 996.86 997.02 997.14 997.26 997.38 997.50 997.74 997.94 998.18 998.42 998.70 999.02 999.26 999.46 999.62 999.82 1000.02 1000.26 1000.50 1000.70 1000.82 1001.02 1001.26 1001.50 1001.74 1002.02 1002.26 1002.50 1002.74 1003.02 1003.26 1003.46 1003.62 1003.86 1004.06 1004.30 1004.58 1004.74 1004.94 1005.06 1005.26 1005.46 1005.62 1005.74 1005.86 1006.06 1006.18 1006.30 1006.50 1006.70 1006.82 1006.94 1007.06 1007.26
994.18 994.38 994.58 994.70 994.82 994.86 995.02 995.14 995.50 995.94 996.26 996.42 996.58 996.62 996.74 996.82 996.94 997.02 997.14 997.26 997.46 997.70 997.94 998.18 998.42 998.70 998.94 999.14 999.30 999.50 999.74 1000.02 1000.26 1000.50 1000.70 1000.86 1001.06 1001.30 1001.58 1001.82 1002.06 1002.30 1002.50 1002.74 1002.94 1003.18 1003.38 1003.58 1003.82 1004.02 1004.26 1004.42 1004.62 1004.82 1005.02 1005.18 1005.30 1005.50 1005.70 1005.82 1005.94 1006.06 1006.18 1006.38 1006.58 1006.70 1006.82 1007.02 1007.14
994.06 994.18 994.30 994.42 994.58 994.70 994.82 995.02 995.46 995.82 996.18 996.38 996.42 996.50 996.62 996.74 996.82 996.94 997.06 997.26 997.46 997.62 997.86 998.14 998.42 998.70 998.86 999.06 999.18 999.46 999.74 1000.06 1000.26 1000.50 1000.74 1000.94 1001.18 1001.46 1001.62 1001.82 1002.06 1002.30 1002.50 1002.70 1002.86 1003.06 1003.30 1003.50 1003.74 1003.94 1004.14 1004.38 1004.50 1004.70 1004.82 1005.06 1005.18 1005.38 1005.50 1005.70 1005.82 1005.94 1006.06 1006.26 1006.38 1006.58 1006.70 1006.86 1007.02
993.94 994.06 994.14 994.26 994.38 994.50 994.74 995.02 995.46 995.82 996.14 996.30 996.30 996.38 996.42 996.58 996.74 996.94 997.14 997.26 997.46 997.62 997.82 998.06 998.38 998.62 998.74 998.86 999.14 999.46 999.82 1000.14 1000.38 1000.62 1000.86 1001.14 1001.26 1001.46 1001.62 1001.86 1002.06 1002.26 1002.38 1002.58 1002.74 1002.94 1003.18 1003.38 1003.62 1003.86 1004.06 1004.18 1004.38 1004.58 1004.74 1004.94 1005.14 1005.26 1005.38 1005.50 1005.70 1005.82 1005.94 1006.06 1006.26 1006.38 1006.58 1006.70 1006.86
993.74 993.86 994.02 994.06 994.18 994.42 994.70 995.06 995.46 995.82 996.02 996.14 996.18 996.26 996.30 996.50 996.70 996.94 997.14 997.30 997.50 997.62 997.82 998.14 998.30 998.50 998.70 998.94 999.18 999.50 999.82 1000.14 1000.42 1000.70 1000.94 1001.18 1001.30 1001.46 1001.62 1001.86 1002.06 1002.18 1002.30 1002.58 1002.86 1003.06 1003.18 1003.38 1003.50 1003.70 1003.86 1004.06 1004.30 1004.50 1004.70 1004.86 1005.02 1005.14 1005.26 1005.38 1005.58 1005.70 1005.82 1005.94 1006.14 1006.26 1006.38 1006.58 1006.74
993.70 993.74 993.82 993.86 994.06 994.30 994.70 995.14 995.50 995.70 995.86 996.02 996.02 996.06 996.18 996.38 996.58 996.82 997.14 997.38 997.58 997.74 997.94 998.18 998.30 998.50 998.74 999.06 999.30 999.62 999.86 1000.14 1000.38 1000.62 1000.86 1001.14 1001.38 1001.50 1001.70 1001.86 1002.06 1002.18 1002.30 1002.62 1002.94 1003.14 1003.30 1003.46 1003.58 1003.70 1003.86 1004.06 1004.26 1004.42 1004.62 1004.74 1004.86 1005.06 1005.18 1005.30 1005.50 1005.62 1005.74 1005.82 1006.02 1006.18 1006.30 1006.42 1006.62
993.62 993.70 993.74 993.82 994.06 994.30 994.70 995.14 995.46 995.58 995.70 995.82 995.86 995.94 996.06 996.26 996.50 996.74 997.14 997.46 997.62 997.82 998.06 998.30 998.50 998.74 999.02 999.18 999.46 999.62 999.86 1000.14 1000.38 1000.70 1000.86 1001.14 1001.38 1001.58 1001.70 1001.86 1002.02 1002.14 1002.38 1002.70 1002.94 1003.14 1003.30 1003.46 1003.62 1003.82 1003.86 1004.02 1004.18 1004.38 1004.58 1004.70 1004.82 1004.94 1005.06 1005.26 1005.38 1005.58 1005.70 1005.82 1005.94 1006.06 1006.26 1006.30 1006.42
993.58 993.58 993.62 993.82 994.06 994.38 994.74 995.06 995.30 995.46 995.58 995.70 995.70 995.74 995.94 996.18 996.50 996.82 997.18 997.50 997.74 998.02 998.26 998.38 998.62 998.94 999.18 999.38 999.50 999.70 999.94 1000.18 1000.42 1000.70 1000.86 1001.14 1001.38 1001.58 1001.70 1001.82 1002.02 1002.18 1002.42 1002.74 1003.02 1003.18 1003.30 1003.46 1003.62 1003.82 1003.94 1004.06 1004.18 1004.30 1004.42 1004.58 1004.82 1005.02 1005.06 1005.18 1005.38 1005.50 1005.62 1005.74 1005.86 1006.02 1006.14 1006.26 1006.38
993.50 993.58 993.70 993.82 994.14 994.50 994.82 995.06 995.26 995.38 995.50 995.58 995.62 995.82 996.02 996.26 996.58 996.94 997.26 997.58 997.86 998.18 998.38 998.58 998.82 999.06 999.30 999.46 999.58 999.74 1000.02 1000.26 1000.50 1000.74 1000.94 1001.18 1001.30 1001.50 1001.70 1001.82 1002.06 1002.30 1002.58 1002.82 1003.02 1003.18 1003.30 1003.50 1003.62 1003.82 1003.94 1004.06 1004.14 1004.26 1004.42 1004.62 1004.82 1005.02 1005.14 1005.18 1005.30 1005.50 1005.62 1005.70 1005.82 1005.94 1006.06 1006.18 1006.30
993.50 993.58 993.74 993.94 994.18 994.50 994.74 995.02 995.14 995.18 995.30 995.50 995.70 995.94 996.26 996.50 996.82 997.14 997.46 997.74 998.06 998.38 998.58 998.70 998.94 999.14 999.26 999.38 999.62 999.82 1000.14 1000.38 1000.62 1000.82 1001.02 1001.18 1001.38 1001.58 1001.74 1001.86 1002.14 1002.38 1002.70 1002.86 1003.02 1003.18 1003.38 1003.50 1003.70 1003.86 1004.06 1004.18 1004.26 1004.30 1004.42 1004.70 1004.94 1005.06 1005.18 1005.30 1005.46 1005.50 1005.58 1005.70 1005.86 1006.02 1006.14 1006.18 1006.26
993.50 993.70 993.82 994.06 994.30 994.58 994.74 994.86 994.94 995.06 995.26 995.46 995.74 996.14 996.42 996.74 997.06 997.38 997.70 998.02 998.30 998.50 998.70 998.82 999.02 999.14 999.26 999.46 999.62 999.86 1000.14 1000.38 1000.70 1000.94 1001.14 1001.18 1001.46 1001.58 1001.74 1002.02 1002.30 1002.70 1003.06 1003.26 1003.18 1003.30 1003.58 1003.74 1004.02 1004.18 1004.38 1004.50 1004.50 1004.62 1004.86 1005.26 1005.58 1005.74 1005.94 1006.18 1006.30 1006.42 1006.58 1006.70 1006.74 1006.82 1006.74 1006.62 1006.58
993.74 993.82 993.86 994.14 994.38 994.58 994.70 994.82 994.86 995.02 995.18 995.46 995.86 996.26 996.62 996.86 997.26 997.62 997.94 998.18 998.42 998.62 998.82 998.94 999.02 999.14 999.30 999.50 999.74 1000.02 1000.26 1000.50 1000.74 1000.94 1001.14 1001.30 1001.50 1001.82 1002.18 1002.70 1003.14 1003.50 1003.70 1003.62 1003.58 1003.62 1003.86 1004.14 1004.30 1004.42 1004.62 1004.82 1005.06 1005.46 1005.82 1006.06 1006.30 1006.58 1006.74 1006.94 1007.06 1007.14 1007.14 1007.14 1007.14 1007.14 1007.06 1007.02 1006.94
993.82 993.86 993.94 994.14 994.30 994.42 994.62 994.74 994.86 995.06 995.30 995.58 996.02 996.38 996.74 997.14 997.50 997.82 998.14 998.30 998.50 998.62 998.82 998.94 999.06 999.18 999.38 999.58 999.82 1000.06 1000.30 1000.62 1000.82 1001.14 1001.46 1001.74 1002.18 1002.74 1003.26 1003.50 1003.74 1003.86 1003.82 1003.74 1003.70 1003.86 1004.14 1004.38 1004.58 1004.70 1004.86 1005.18 1005.46 1005.82 1006.14 1006.38 1006.70 1007.02 1007.26 1007.46 1007.58 1007.62 1007.62 1007.62 1007.62 1007.58 1007.50 1007.38 1007.30
993.86 994.02 994.06 994.14 994.26 994.42 994.62 994.74 994.94 995.18 995.50 995.86 996.18 996.58 996.94 997.38 997.74 998.02 998.26 998.42 998.62 998.82 999.06 999.30 999.50 999.82 1000.06 1000.18 1000.42 1000.70 1000.86 1001.14 1001.30 1001.82 1002.30 1002.74 1003.02 1003.30 1003.62 1004.02 1004.30 1004.38 1004.30 1004.14 1004.06 1004.18 1004.30 1004.58 1004.74 1004.94 1005.18 1005.46 1005.82 1006.18 1006.58 1006.82 1007.18 1007.50 1007.74 1007.86 1008.06 1008.14 1008.14 1008.14 1008.14 1008.18 1008.14 1008.06 1008.06
994.06 994.18 994.26 994.26 994.30 994.50 994.70 994.86 995.06 995.38 995.70 996.06 996.38 996.74 997.18 997.58 997.94 998.18 998.50 998.86 999.26 999.70 1000.14 1000.42 1000.62 1000.86 1001.06 1001.30 1001.46 1001.62 1001.82 1002.06 1002.42 1002.82 1003.14 1003.30 1003.50 1003.70 1004.06 1004.58 1004.82 1004.86 1004.82 1004.70 1004.70 1004.74 1004.74 1004.74 1004.94 1005.14 1005.38 1005.74 1006.18 1006.62 1006.94 1007.30 1007.62 1007.94 1008.18 1008.30 1008.50 1008.62 1008.70 1008.74 1008.74 1008.82 1008.82 1008.74 1008.82
994.02 994.14 994.18 994.18 994.26 994.42 994.70 994.94 995.18 995.46 995.82 996.18 996.58 997.02 997.46 997.82 998.18 998.62 999.14 999.58 999.86 1000.26 1000.62 1000.86 1001.06 1001.26 1001.50 1001.74 1002.02 1002.26 1002.50 1002.74 1003.14 1003.38 1003.62 1003.74 1003.94 1004.18 1004.50 1004.86 1005.18 1005.26 1005.26 1005.18 1005.26 1005.26 1005.26 1005.18 1005.26 1005.30 1005.50 1005.94 1006.50 1006.94 1007.30 1007.70 1008.02 1008.30 1008.58 1008.74 1009.02 1009.26 1009.38 1009.46 1009.50 1009.58 1009.50 1009.46 1009.50
993.82 993.94 994.02 994.02 994.14 994.38 994.70 995.02 995.30 995.70 996.02 996.38 996.70 997.06 997.58 998.14 998.74 999.26 999.62 999.82 1000.18 1000.62 1001.02 1001.30 1001.58 1001.82 1002.06 1002.30 1002.70 1003.02 1003.30 1003.58 1003.74 1003.94 1004.14 1004.30 1004.38 1004.58 1004.86 1005.26 1005.58 1005.70 1005.70 1005.62 1005.62 1005.58 1005.58 1005.58 1005.58 1005.58 1005.74 1006.26 1006.82 1007.26 1007.58 1007.94 1008.38 1008.70 1008.94 1009.18 1009.50 1009.74 1009.86 1010.02 1010.18 1010.26 1010.26 1010.26 1010.26
993.58 993.58 993.62 993.74 994.02 994.38 994.82 995.18 995.62 995.94 996.26 996.50 996.82 997.38 998.02 998.70 999.18 999.62 999.94 1000.14 1000.58 1001.02 1001.46 1001.82 1002.18 1002.50 1002.74 1002.94 1003.30 1003.70 1004.02 1004.26 1004.30 1004.42 1004.62 1004.82 1004.94 1005.06 1005.30 1005.70 1006.02 1006.14 1006.18 1006.14 1006.02 1005.86 1005.86 1005.86 1005.86 1005.94 1006.14 1006.58 1007.06 1007.46 1007.86 1008.26 1008.70 1009.06 1009.38 1009.62 1010.02 1010.26 1010.42 1010.58 1010.74 1010.94 1011.02 1011.06 1011.06
993.14 993.26 993.46 993.70 994.06 994.58 995.02 995.46 995.82 996.18 996.50 996.86 997.38 998.02 998.62 999.14 999.58 1000.02 1000.38 1000.58 1000.94 1001.38 1001.86 1002.30 1002.74 1003.06 1003.30 1003.58 1003.86 1004.26 1004.70 1004.86 1005.02 1005.06 1005.26 1005.50 1005.70 1005.82 1005.86 1006.14 1006.42 1006.58 1006.62 1006.58 1006.42 1006.30 1006.26 1006.26 1006.26 1006.30 1006.50 1006.86 1007.26 1007.70 1008.14 1008.58 1009.02 1009.38 1009.70 1010.02 1010.38 1010.62 1010.86 1011.06 1011.26 1011.50 1011.62 1011.74 1011.70
992.94 993.14 993.38 993.70 994.14 994.62 995.18 995.62 996.02 996.42 996.94 997.58 998.06 998.58 999.06 999.58 1000.06 1000.42 1000.82 1001.06 1001.46 1001.86 1002.38 1002.86 1003.30 1003.62 1003.86 1004.06 1004.38 1004.82 1005.26 1005.50 1005.62 1005.82 1006.02 1006.26 1006.38 1006.42 1006.50 1006.62 1006.82 1007.02 1007.06 1007.02 1006.86 1006.74 1006.70 1006.70 1006.70 1006.74 1006.94 1007.26 1007.58 1007.94 1008.38 1008.74 1009.18 1009.62 1010.02 1010.38 1010.70 1011.02 1011.26 1011.58 1011.74 1011.94 1012.14 1012.30 1012.38
993.06 993.26 993.58 993.86 994.30 994.82 995.38 995.94 996.50 997.06 997.62 998.14 998.58 999.02 999.50 1000.02 1000.42 1000.74 1001.14 1001.58 1002.02 1002.50 1002.94 1003.30 1003.74 1004.06 1004.30 1004.50 1004.94 1005.30 1005.70 1006.02 1006.26 1006.50 1006.70 1006.82 1006.94 1007.02 1007.06 1007.14 1007.30 1007.46 1007.58 1007.50 1007.46 1007.30 1007.18 1007.14 1007.18 1007.18 1007.30 1007.62 1007.94 1008.30 1008.62 1008.94 1009.38 1009.86 1010.38 1010.74 1011.02 1011.30 1011.62 1011.94 1012.18 1012.38 1012.62 1012.82 1013.02
Wind_Speed
14 12 11 10 9 9 9 8 8 8 8 9 10 10 10 10 10 9 9 9 9 9 9 9 10 10 12 15 18 18 18 18 16 15 15 16 17 17 18 17 17 16 15 15 14 14 13 14 11 8 7 8 9 10 10 9 10 11 12 13 12 12 13 13 13 14 14 13 11
15 14 12 10 9 9 8 8 8 8 8 9 9 10 10 10 10 9 9 9 9 8 8 8 10 11 13 16 17 18 18 18 17 16 16 17 18 18 18 16 17 17 17 17 15 13 12 13 11 9 7 7 8 9 9 9 10 11 13 15 12 11 11 12 13 14 15 14 12
15 14 13 12 11 10 9 9 9 10 10 9 9 10 10 10 9 9 9 9 10 10 9 8 10 12 14 16 16 16 17 18 18 17 16 16 18 18 18 16 17 18 18 17 16 14 12 13 11 9 8 7 8 8 8 9 10 11 12 14 11 10 9 10 12 13 13 12 12
15 15 14 14 15 14 12 10 11 11 11 9 10 10 10 10 9 9 9 10 11 11 10 9 10 12 14 15 16 16 17 17 18 17 16 16 17 18 18 17 17 18 18 18 17 16 15 15 11 9 8 9 10 9 8 7 9 10 10 11 10 10 10 10 11 12 11 11 12
15 15 14 14 16 15 13 11 12 11 11 9 9 9 9 9 9 9 10 11 11 11 11 11 11 11 13 14 16 17 18 18 18 17 16 16 17 18 18 18 17 17 17 18 18 18 17 16 11 9 9 10 9 9 9 9 10 9 9 8 8 8 9 10 10 10 10 10 11
15 15 15 14 15 15 13 12 12 12 10 9 10 10 10 8 9 9 10 11 11 12 12 12 11 11 13 15 16 17 17 17 16 16 16 17 16 17 18 19 18 17 16 17 18 18 17 16 11 9 9 9 10 10 11 11 10 10 9 7 7 7 8 9 9 9 10 10 12
15 16 16 15 15 14 13 12 11 11 10 10 11 11 11 10 10 11 12 12 11 11 11 11 11 12 13 15 15 15 15 14 14 16 17 17 16 17 18 19 19 18 17 17 18 17 16 15 10 9 9 9 9 11 13 12 11 11 10 9 7 7 7 9 8 8 9 13 15
15 16 16 15 15 15 15 14 12 10 10 9 11 12 12 12 12 13 13 12 11 10 10 9 12 13 14 14 14 15 15 15 14 16 17 16 17 18 18 19 19 19 18 17 17 17 16 13 10 9 9 9 9 10 13 14 14 13 12 12 9 7 7 8 8 9 10 14 17
14 15 16 15 15 15 15 15 13 11 10 10 11 12 13 13 13 13 12 11 10 10 9 10 12 14 14 15 15 15 15 15 16 16 16 16 17 17 17 18 18 18 18 16 16 17 16 12 10 9 9 9 9 10 12 15 16 16 14 12 10 8 8 7 9 10 12 15 17
14 15 15 15 15 15 15 14 13 12 11 11 12 12 12 12 13 12 11 10 10 10 10 11 12 13 13 14 14 14 14 14 15 16 16 16 17 17 17 16 17 18 17 15 15 16 16 12 11 10 10 10 11 12 12 14 16 16 15 11 11 10 10 9 10 11 13 14 17
14 15 15 14 15 15 14 14 13 12 11 11 12 12 13 13 13 12 11 10 10 11 12 12 12 12 11 11 11 11 11 12 14 15 16 16 16 16 16 16 17 16 15 14 13 13 13 12 12 12 12 11 12 12 12 13 15 16 15 11 12 12 12 11 11 11 12 14 17
15 14 14 14 14 14 14 13 11 11 11 12 12 13 13 13 13 13 12 11 11 12 12 12 12 11 10 8 9 9 9 10 12 14 15 16 16 17 16 16 16 16 15 14 13 11 11 12 13 14 14 14 12 11 11 14 14 15 15 13 13 13 13 13 12 11 11 12 15
14 14 14 14 14 14 13 12 11 10 11 12 12 12 12 12 13 13 13 12 12 12 11 12 11 10 9 8 9 9 9 9 11 12 14 15 16 16 16 15 15 15 15 14 13 12 11 13 14 15 16 15 12 12 12 14 14 15 15 15 15 14 14 14 13 13 12 12 13
14 14 14 14 15 14 13 12 10 10 11 13 13 12 12 12 13 13 12 12 12 12 11 12 11 10 9 9 10 10 10 10 11 12 13 15 15 16 16 15 15 15 14 13 13 13 14 14 15 16 17 16 15 14 14 14 14 15 15 16 16 15 15 14 14 14 13 13 13
14 15 15 15 15 14 13 12 10 10 11 13 12 12 11 11 12 12 12 12 13 12 11 11 11 10 10 10 10 11 11 12 12 13 14 15 15 16 16 15 15 15 14 13 14 14 15 16 16 17 17 17 16 15 14 14 14 15 15 16 16 16 15 14 15 14 14 14 13
15 15 15 15 15 14 13 12 10 10 11 12 12 12 11 10 11 12 12 13 12 11 11 12 11 11 11 11 11 11 11 11 12 13 14 14 15 15 16 15 15 15 15 14 14 15 15 16 16 16 16 16 16 15 14 14 14 15 15 16 16 15 15 15 15 15 14 15 14
15 15 16 16 16 15 14 13 10 10 10 12 12 12 11 11 11 11 12 13 12 11 11 12 12 11 12 11 11 11 10 10 11 12 13 13 14 15 15 15 15 15 15 15 15 15 15 15 15 15 15 15 14 14 14 14 14 14 15 16 16 16 15 15 14 15 15 15 15
16 16 16 16 16 16 15 14 12 12 12 13 13 13 12 11 11 12 12 13 12 12 12 13 12 11 12 12 11 10 9 10 10 10 11 13 14 14 14 14 14 14 14 14 14 14 14 14 14 13 13 13 13 12 13 13 13 14 15 16 16 16 16 15 15 14 14 15 15
16 16 17 17 17 17 16 15 14 13 13 13 13 13 13 13 13 13 13 13 13 13 13 13 12 11 12 13 12 11 10 10 10 11 11 12 13 13 14 14 13 12 12 12 12 12 13 13 13 12 12 11 11 11 11 12 12 12 14 15 16 16 16 16 15 14 14 15 15
17 17 17 17 17 17 17 16 15 14 13 13 14 14 14 14 13 13 13 13 13 13 13 13 12 12 12 13 13 12 11 10 11 11 10 10 11 11 12 12 12 11 11 11 10 11 11 12 12 12 11 11 11 11 11 11 11 12 13 13 14 15 16 16 15 15 15 15 14
17 17 17 18 17 17 16 16 15 14 14 13 14 14 14 13 13 13 13 13 13 14 14 13 13 12 12 13 13 12 11 9 10 10 9 8 9 9 10 10 10 10 10 10 10 10 11 11 12 11 11 11 12 12 12 11 11 12 12 11 12 14 15 16 16 15 15 15 14
17 17 17 18 17 16 16 15 15 14 14 14 14 14 14 13 13 13 12 13 13 13 13 13 13 13 13 13 13 12 10 8 8 8 8 7 7 8 8 8 9 10 10 11 11 11 12 12 12 12 11 11 12 12 12 11 11 12 12 12 12 13 14 15 15 15 15 14 14
17 17 17 17 16 16 15 15 14 14 14 14 15 14 14 14 13 12 12 12 12 12 13 12 12 12 13 13 12 12 10 8 8 8 7 7 7 7 8 8 9 10 10 10 11 11 12 12 12 12 12 11 11 12 12 12 11 11 11 12 12 13 14 14 14 14 14 14 14
17 16 15 14 15 15 15 14 14 15 15 15 15 14 14 13 13 12 12 12 12 12 12 11 11 12 12 12 12 12 11 10 10 9 8 8 8 8 8 8 8 9 9 8 9 10 11 10 11 11 11 10 10 11 11 11 11 11 11 12 12 12 13 13 14 14 14 14 13
17 16 15 14 15 15 15 14 15 15 15 15 15 14 14 14 13 13 12 12 12 12 11 11 11 11 11 11 12 12 12 11 11 10 9 9 9 8 8 7 7 7 6 6 7 8 9 8 8 9 9 9 9 10 10 11 11 11 11 11 12 11 12 12 13 14 14 14 13
16 15 15 15 15 15 15 15 15 16 16 15 15 14 14 14 14 13 13 12 12 11 11 11 10 9 9 10 11 11 11 11 11 11 10 9 9 9 8 7 6 6 5 5 6 8 9 8 8 7 8 8 8 8 9 9 11 11 11 11 11 11 11 11 12 13 13 13 13
15 15 15 15 15 15 15 15 16 16 15 14 14 14 14 14 13 13 13 12 12 11 10 10 9 8 7 9 10 11 11 10 10 10 10 9 9 9 8 7 6 5 4 5 8 9 9 9 8 8 8 8 8 8 8 8 9 10 10 10 10 10 10 11 11 11 12 12 13
14 14 14 15 15 15 15 16 16 15 15 14 14 13 13 13 13 13 12 11 11 10 9 9 8 7 6 7 9 10 10 9 9 8 8 8 8 8 8 7 6 4 5 7 9 10 10 10 10 9 8 7 7 7 8 7 8 8 8 8 9 9 9 9 9 9 10 11 11
13 14 14 15 15 15 16 16 16 15 15 14 13 12 11 11 12 12 11 11 10 9 8 7 6 6 6 7 8 9 10 9 8 7 7 7 8 8 7 7 5 5 7 9 10 10 10 11 11 10 9 8 7 6 6 6 6 7 7 7 8 9 10 11 10 10 11 11 11
13 14 14 15 15 16 16 16 16 15 14 13 12 12 11 11 11 11 11 11 10 9 8 6 6 7 8 8 9 9 9 8 7 7 7 8 7 7 7 6 6 6 7 10 10 10 9 8 8 7 6 5 5 5 5 4 3 2 1 1 2 3 5 7 8 8 7 7 8
13 14 14 15 15 16 16 16 16 15 14 13 12 12 12 11 11 11 10 10 10 9 8 7 8 9 9 9 9 9 9 8 8 7 7 8 7 6 5 5 5 5 5 5 8 9 9 8 8 8 7 6 4 3 4 7 9 9 9 10 12 12 12 11 11 10 8 7 4
13 14 15 16 16 16 16 16 16 15 14 14 13 13 12 12 11 11 10 10 9 9 8 8 9 10 10 9 9 9 8 8 8 7 7 6 5 6 9 11 12 11 8 6 10 13 15 16 16 17 16 15 14 14 14 13 13 13 13 14 15 14 13 10 10 11 11 10 9
13 14 15 16 16 16 16 16 15 15 14 14 14 13 13 12 11 11 10 9 9 9 9 9 10 10 9 9 9 9 9 8 7 6 6 9 13 15 15 14 12 11 9 11 15 18 20 20 20 20 19 17 15 14 14 13 12 12 12 13 14 14 14 14 13 13 13 13 12
13 14 15 16 16 15 15 15 15 15 14 14 14 13 13 13 12 11 9 8 7 6 7 7 7 7 7 7 7 6 7 8 11 14 16 17 17 17 16 13 11 12 13 14 16 19 20 21 21 21 20 17 15 14 14 15 13 13 14 14 15 15 15 16 16 16 15 15 14
14 15 16 16 15 15 15 15 15 15 15 15 14 14 13 13 12 10 9 10 12 13 14 14 15 15 15 16 17 17 18 18 19 18 17 16 17 18 18 16 14 15 17 16 16 17 18 20 21 21 19 16 14 14 15 16 15 15 16 17 17 17 18 17 17 16 16 15 15
16 16 17 16 16 15 15 14 14 14 15 15 15 15 14 12 12 13 14 15 16 16 16 16 16 16 17 17 18 18 18 18 18 17 16 16 17 18 18 17 16 16 17 16 15 15 15 17 18 19 18 15 13 13 13 14 14 15 17 18 18 18 18 18 18 17 17 16 15
17 17 17 16 16 15 14 14 13 13 14 15 16 15 14 14 15 15 15 16 17 17 17 16 17 17 17 18 18 18 17 17 17 17 17 16 17 17 18 18 17 16 16 16 15 14 14 15 16 17 16 14 13 13 12 12 12 14 16 17 17 17 17 16 17 18 18 18 17
18 18 17 16 16 15 15 14 13 13 13 14 15 15 16 16 15 15 15 15 17 17 17 17 17 17 17 18 19 19 19 18 18 18 18 18 17 17 18 18 17 16 16 17 16 16 15 15 15 15 15 14 13 13 12 11 12 13 14 14 15 15 15 14 14 16 19 22 22
17 17 16 16 16 16 16 15 15 13 13 13 15 16 17 16 15 14 14 15 17 18 18 18 18 17 18 19 19 20 20 20 20 19 19 19 18 18 18 18 17 16 17 18 18 17 17 16 16 16 15 14 13 12 11 11 13 13 13 13 13 14 14 13 13 14 17 23 26
14 15 15 15 16 17 17 16 14 13 13 16 18 18 18 17 16 15 15 16 17 18 18 18 18 18 17 18 20 20 20 20 20 20 19 19 18 18 18 17 17 17 18 19 19 19 18 17 17 16 15 13 12 11 11 11 13 13 13 12 12 12 12 13 12 13 15 19 22
11 12 12 13 15 15 15 14 14 15 17 18 19 18 17 16 16 16 16 16 17 17 17 17 18 18 18 18 18 19 20 21 20 20 19 19 18 18 18 18 18 18 18 20 21 20 19 18 17 16 15 13 12 11 10 11 13 14 14 12 11 11 11 12 12 13 14 15 16
Wind_Direction
200 201 201 201 201 202 202 201 199 191 182 176 180 182 184 188 188 186 184 187 189 188 186 186 189 190 186 177 175 176 178 178 180 183 185 185 186 187 186 187 185 185 184 184 183 183 184 183 180 177 179 185 188 189 189 187 183 183 186 189 192 192 191 189 190 190 190 192 191
198 199 199 199 200 202 203 201 198 193 186 178 180 180 182 186 188 186 183 185 189 190 188 186 186 189 187 181 176 176 177 177 178 181 185 187 188 187 186 186 186 186 186 186 183 183 183 181 179 178 180 185 189 191 192 191 187 185 186 188 190 190 191 192 193 193 192 193 192
195 196 198 198 199 201 203 201 198 194 189 181 180 179 180 183 187 186 184 185 189 191 191 187 185 185 186 184 179 177 177 176 176 179 183 188 189 188 187 185 186 186 186 187 185 184 183 182 180 180 182 186 189 191 193 192 191 190 189 188 189 189 191 194 196 195 195 195 193
193 195 197 199 200 201 203 202 197 194 190 183 181 180 180 180 184 184 184 186 190 193 193 190 184 182 182 184 182 181 180 177 175 177 182 186 189 189 187 184 184 185 186 188 187 185 184 183 183 184 186 188 190 192 192 190 193 195 194 189 188 190 193 196 197 196 196 197 194
192 194 197 200 199 200 202 203 197 193 189 184 182 181 180 180 181 182 184 187 191 193 192 190 185 181 180 182 183 184 183 180 175 175 180 185 188 189 188 185 182 183 186 188 188 186 185 183 185 188 190 191 191 192 192 189 193 197 198 192 188 189 192 195 196 196 196 196 194
190 194 197 199 198 199 200 202 196 192 189 187 186 184 183 180 181 183 184 187 190 191 191 189 187 182 179 181 183 184 183 180 174 174 178 183 187 189 189 187 184 184 186 188 188 187 185 184 186 190 192 193 195 195 193 190 192 196 199 198 190 187 188 191 192 193 193 194 193
189 192 195 197 195 195 197 198 194 191 189 189 189 188 186 183 183 184 185 186 188 188 188 188 188 184 180 179 182 181 179 176 173 175 178 181 184 187 188 188 186 185 185 187 188 187 187 186 187 189 190 192 197 196 194 190 192 195 199 202 196 189 187 190 189 189 190 192 191
188 190 193 193 193 193 194 194 191 189 189 191 191 190 189 187 187 186 185 185 185 185 185 186 188 186 183 180 181 179 176 173 175 178 180 180 181 184 186 187 187 187 186 186 187 188 188 187 188 190 191 192 196 196 194 191 192 194 198 201 199 194 189 190 189 189 190 191 192
187 188 190 190 190 191 193 192 190 189 190 192 193 192 191 191 190 188 185 184 183 181 180 184 188 187 184 182 182 180 177 174 177 180 182 179 179 181 183 186 189 189 188 186 187 188 189 189 190 191 191 191 195 196 194 191 192 195 197 200 199 195 192 191 190 190 191 191 193
185 186 187 188 189 190 191 191 190 191 192 195 196 194 193 193 193 190 187 184 179 177 178 183 186 187 186 184 182 181 179 176 178 181 182 180 178 179 182 186 190 191 190 186 186 187 188 189 191 191 191 192 195 195 193 190 193 195 196 198 198 196 194 193 192 191 191 192 194
185 184 185 186 186 187 187 187 188 190 192 196 197 195 194 194 194 192 188 182 178 178 179 180 184 186 187 185 180 178 176 176 178 181 182 181 179 179 182 186 190 191 189 184 184 185 187 189 191 192 192 192 194 194 192 192 194 196 197 197 198 198 198 197 194 192 192 193 194
184 183 184 184 183 182 182 184 186 188 191 196 197 195 193 193 193 191 187 182 179 178 179 178 181 184 186 184 177 172 169 172 176 180 182 183 181 181 182 185 189 189 187 183 182 183 186 190 192 194 194 193 193 193 192 192 194 196 197 197 197 199 200 199 196 194 193 192 193
182 182 182 181 178 177 179 182 184 187 191 197 198 195 191 191 190 188 185 182 180 179 178 176 179 182 184 183 176 170 167 169 175 180 183 185 183 182 182 183 186 187 186 184 183 184 187 191 193 195 196 195 194 193 193 193 194 196 197 197 197 199 201 200 197 196 194 193 193
179 179 179 178 176 176 177 181 184 188 193 198 198 195 190 188 186 185 183 181 181 179 176 174 177 180 183 183 179 174 172 171 175 179 183 187 185 184 183 183 184 185 185 185 185 187 190 193 195 197 198 198 197 195 193 192 194 196 198 198 198 200 200 199 197 195 194 194 193
177 177 177 178 176 176 178 181 184 189 193 198 199 196 191 186 184 182 181 181 181 179 175 174 175 178 181 182 182 181 179 175 174 177 181 186 186 186 186 185 184 184 184 185 187 190 193 196 197 198 199 199 198 196 193 192 194 196 198 199 199 199 199 198 195 193 192 192 193
176 176 176 178 178 178 179 180 183 188 192 196 198 197 192 187 183 182 181 181 180 178 176 174 174 175 178 180 184 186 185 179 174 174 178 183 185 187 188 188 186 184 184 185 188 191 195 197 198 198 199 199 198 196 194 193 195 197 199 200 200 200 198 196 193 192 191 191 193
174 175 176 179 180 180 180 179 182 186 190 193 196 196 193 189 184 183 182 182 178 176 175 176 175 174 174 178 183 186 187 183 176 174 176 180 184 186 189 190 189 187 185 186 188 192 194 197 197 197 197 197 197 196 195 195 197 198 200 201 201 200 198 196 193 191 190 191 193
174 175 177 179 180 181 180 179 182 185 188 191 194 195 193 190 185 183 182 183 177 174 174 177 177 175 174 177 182 184 184 182 180 179 179 181 183 186 188 191 190 188 187 186 188 190 192 194 194 194 195 196 196 196 196 197 199 200 201 202 202 201 199 197 195 192 191 190 193
176 177 178 180 181 181 179 178 181 185 188 191 193 193 192 190 186 183 181 182 177 174 174 177 177 176 176 179 181 181 180 180 182 183 184 183 183 184 186 188 188 187 186 185 186 187 188 189 190 191 192 194 195 197 198 199 201 202 203 204 204 202 201 199 198 196 193 192 192
179 179 179 180 181 180 178 176 180 184 188 191 192 192 190 188 185 182 180 180 177 175 175 177 176 177 178 180 180 179 178 177 180 183 184 183 181 181 181 183 184 185 184 183 183 184 184 186 188 189 191 194 197 198 200 201 203 204 205 205 204 203 202 201 201 199 197 195 193
180 180 181 181 180 178 175 174 179 184 189 192 193 191 187 183 182 181 179 179 178 177 176 175 175 177 179 180 179 178 176 174 176 178 179 179 178 177 177 177 180 183 185 184 184 185 186 188 189 191 193 195 198 200 200 201 203 204 205 205 204 202 202 202 202 202 200 198 196
181 181 181 180 177 174 172 171 176 183 189 194 193 189 183 178 179 179 179 179 179 178 175 172 172 176 179 179 176 175 173 170 171 172 173 175 177 177 176 176 180 184 186 187 187 188 190 191 192 194 195 196 199 200 200 200 201 202 203 203 201 200 200 201 202 201 201 200 199
181 181 180 177 173 170 168 168 175 182 189 194 192 186 180 175 177 177 178 180 180 177 174 169 170 175 179 177 172 170 168 168 170 171 172 175 181 182 182 182 185 187 189 190 190 190 192 193 195 196 196 196 198 199 200 200 200 200 201 201 200 199 198 198 199 199 200 201 200
181 179 177 173 169 165 164 167 176 183 190 193 190 184 178 174 175 176 177 179 179 178 174 168 170 174 176 173 168 166 167 170 173 174 176 181 187 189 189 187 189 190 191 191 190 190 191 192 194 194 194 194 197 199 200 200 200 200 200 201 199 198 197 196 196 197 199 200 201
179 176 173 169 164 162 162 168 177 185 189 190 186 181 177 173 173 174 176 177 178 177 174 168 171 172 172 168 165 166 170 173 174 175 178 184 190 193 192 191 191 191 189 184 181 180 181 184 188 189 190 191 194 197 199 200 201 201 202 201 200 199 197 196 195 197 198 201 202
175 172 169 166 162 160 163 170 180 185 187 185 183 179 176 173 171 171 172 174 175 173 171 169 169 167 165 166 167 169 172 173 174 174 177 182 188 191 192 191 190 188 181 166 165 167 169 172 177 182 186 188 191 194 197 200 201 203 203 203 202 201 199 197 196 197 199 202 203
171 169 167 163 161 162 166 173 180 184 184 182 181 178 175 171 168 167 168 170 170 169 168 168 162 157 159 169 170 171 171 170 170 171 175 179 185 187 189 188 186 181 168 150 157 161 165 168 171 175 182 188 191 194 197 200 202 204 205 204 204 203 203 202 200 200 200 203 204
169 168 166 162 162 164 169 175 179 181 181 180 179 176 171 165 162 161 163 165 164 164 165 165 153 151 159 173 171 169 166 164 165 167 172 177 182 185 186 185 180 165 145 144 154 161 165 168 169 173 179 188 193 197 199 201 202 204 205 206 206 207 208 208 207 206 206 207 208
168 168 167 163 163 166 171 175 177 177 176 177 176 170 163 157 155 155 157 159 158 160 162 160 150 154 165 171 166 162 160 160 160 163 169 176 181 184 184 181 166 145 136 144 154 161 166 170 172 174 178 185 193 199 201 203 206 208 210 212 211 211 210 209 209 212 215 217 216
168 169 167 164 164 167 171 173 173 172 172 173 170 163 155 152 150 150 152 155 158 161 162 158 157 162 166 162 157 155 156 157 158 163 171 178 182 181 178 174 159 141 135 145 153 159 164 165 164 165 168 180 194 201 205 206 210 219 234 261 293 288 275 262 268 265 260 252 237
168 168 166 164 165 167 169 171 171 170 169 169 163 157 151 149 147 147 150 156 159 160 160 160 163 163 159 150 147 149 152 154 159 166 173 178 177 174 165 146 102 75 74 118 133 128 116 103 92 82 72 60 48 36 34 41 45 45 44 41 37 36 37 41 37 32 25 11 342
170 168 166 165 166 167 169 169 168 168 166 162 155 151 149 146 145 147 151 157 157 156 157 162 162 158 151 144 144 146 149 153 158 164 168 166 138 88 59 50 44 35 31 53 88 90 86 82 79 77 74 72 72 71 67 63 60 58 56 54 49 46 44 42 39 34 31 31 27
172 169 166 165 166 166 167 166 164 162 159 153 149 147 146 144 144 147 150 152 153 155 157 160 157 152 146 145 146 149 151 150 146 132 97 68 69 63 55 40 31 26 35 66 86 91 90 88 85 82 79 78 79 80 78 75 70 65 60 55 51 47 43 41 38 36 35 36 41
176 173 170 168 164 162 160 158 157 155 151 146 144 144 145 144 144 143 142 137 124 112 102 95 93 86 78 73 76 82 83 69 68 68 68 64 64 64 61 54 42 34 39 62 83 92 94 94 91 87 84 80 79 77 75 73 70 66 62 58 53 48 45 42 40 39 39 41 47
178 177 176 170 161 156 152 151 150 148 146 143 143 144 145 144 138 126 107 89 81 76 71 67 66 64 61 60 60 61 62 62 61 63 65 69 70 69 65 59 49 41 41 54 68 80 88 93 92 91 88 84 82 80 78 75 72 69 65 61 56 51 47 44 42 41 41 45 50
178 177 175 168 156 150 146 144 144 144 144 144 145 145 142 135 117 99 88 82 81 80 78 75 72 70 69 66 64 63 63 66 67 67 67 67 69 70 68 63 52 43 41 47 57 67 77 85 89 91 90 88 86 84 81 78 75 71 68 64 59 55 51 49 46 43 43 45 50
175 173 168 160 151 146 142 141 142 144 147 148 146 141 130 111 97 91 90 90 87 83 79 75 72 70 69 68 65 63 61 63 65 65 64 63 66 68 68 64 54 45 40 42 51 60 68 76 83 87 90 91 91 88 85 82 79 74 71 67 63 59 56 53 50 47 46 46 49
169 164 159 153 149 145 143 144 148 151 152 148 138 123 108 97 94 92 92 91 90 87 82 78 74 72 71 71 69 64 61 59 61 62 62 60 61 64 66 64 56 48 43 42 49 56 62 69 76 82 88 93 93 91 88 85 82 78 75 71 68 63 60 58 55 52 50 48 49
158 154 151 150 148 147 148 151 155 153 144 127 113 102 96 95 93 91 89 89 89 88 85 81 78 76 74 74 71 67 63 59 59 59 60 59 58 60 63 64 58 51 45 43 48 54 60 66 72 79 85 91 92 92 90 89 85 82 79 76 73 68 64 62 60 57 54 52 52
145 145 147 149 148 149 151 154 149 135 115 101 98 97 96 96 94 92 90 87 87 86 86 85 83 80 78 76 74 71 67 63 60 59 60 59 58 58 60 61 58 52 47 44 48 53 59 65 71 77 83 88 89 90 91 90 87 84 81 79 77 73 69 65 63 61 59 56 54
136 138 143 148 149 146 141 132 114 102 96 95 96 97 96 96 95 93 91 89 88 87 87 86 84 82 79 77 76 74 71 67 63 61 60 59 57 57 57 58 56 53 49 46 48 52 57 62 67 74 81 88 89 90 91 91 89 86 83 80 79 77 75 70 67 64 62 59 57